Location: Hopville
(44.8032°N, 123.1329°W)
Time: 17:21:20
(UTC+00:00)

Spot 2 - Pass Details

Date: 24 January 2021
Orbit: 569 x 774 km, 98.8° (Epoch: 28 February)

Event Time Altitude Azimuth Distance (km) Brightness Sun altitude
Rises 14:22:30 0° 15° (NNE) 2,787 7.4 -13.7°
Reaches altitude 10° 14:24:39 10° 16° (NNE) 1,882 6.6 -13.3°
Maximum altitude 14:28:42 80° 104° (ESE) 588 4.0 -12.6°
Drops below altitude 10° 14:32:47 10° 192° (SSW) 1,896 6.6 -11.9°
Sets 14:34:57 0° 193° (SSW) 2,811 7.5 -11.5°
